Location: Newark
(34.6283°N, 36.0776°E)
Time: 00:32:37
(UTC+00:00)

A-11 Canister half - Pass Details

Date: 21 September 2019
Orbit: 1527 x 1682 km, 47.3° (Epoch: 22 October)

Event Time Altitude Azimuth Distance (km) Brightness Sun altitude
Rises 10:22:23 0° 290° (WNW) 4,869 11.7 53.9°
Reaches altitude 10° 10:27:08 10° 271° (W) 3,903 11.5 53.5°
Maximum altitude 10:32:33 16° 237° (WSW) 3,449 11.7 53.0°
Drops below altitude 10° 10:38:02 10° 203° (SSW) 3,929 12.0 52.5°
Sets 10:42:55 0° 184° (S) 4,918 12.2 51.9°
